This demonstration page uses our WeatherBlox Daily Observations layout. Learn more.

Left ArrowRight Arrow

Hourly Observations for June 30, 2019

Temp ( °F °C ) Dew Point ( °F °C ) Humidity (%) Winds ( mph kmh ) Pressure ( in mb ) Visibility ( mi km ) Precip ( " mm )
12:56 am 00:56 Clear 75 23.9 67 19.4 76 76 S 7 11 29.98 1015 10 16 0.00 0.00
1:56 am 01:56 Clear 74 23.3 66 18.9 76 76 SSE 9 15 29.98 1015 10 16 0.00 0.00
2:56 am 02:56 Clear 73 22.8 65 18.3 76 76 S 8 13 29.98 1015 10 16 0.00 0.00
3:56 am 03:56 Clear 72 22.2 66 18.9 82 82 S 8 13 29.98 1015 10 16 0.00 0.00
4:56 am 04:56 Clear 73 22.8 66 18.9 79 79 S 10 17 29.98 1015 10 16 0.00 0.00
5:56 am 05:56 Clear 73 22.8 67 19.4 81 81 SSW 12 19 29.98 1015 10 16 0.00 0.00
6:56 am 06:56 Sunny 73 22.8 68 20 84 84 SSW 8 13 29.98 1015 10 16 0.00 0.00
7:56 am 07:56 Sunny 76 24.4 69 20.6 79 79 SSW 9 15 29.99 1016 10 16 0.00 0.00
8:56 am 08:56 Sunny 80 26.7 69 20.6 69 69 S 12 19 29.98 1015 10 16 0.00 0.00
9:56 am 09:56 Sunny 82 27.8 71 21.7 69 69 SSW 7 11 29.99 1016 10 16 0.00 0.00
10:56 am 10:56 Sunny 86 30 71 21.7 61 61 S 15 24 29.96 1015 10 16 0.00 0.00
11:56 am 11:56 Sunny 89 31.7 71 21.7 55 55 S 14 22 29.96 1015 10 16 0.00 0.00
12:56 pm 12:56 Sunny 91 32.8 72 22.2 54 54 SSE 14 22 29.96 1014 10 16 0.00 0.00
1:56 pm 13:56 Sunny 92 33.3 71 21.7 51 51 SSE 16 26 29.95 1014 10 16 0.00 0.00
2:56 pm 14:56 Sunny 94 34.4 69 20.6 44 44 S 22 35 29.93 1014 10 16 0.00 0.00
3:56 pm 15:56 Sunny 94 34.4 68 20 43 43 S 21 33 29.92 1013 10 16 0.00 0.00
4:56 pm 16:56 Sunny 94 34.4 65 18.3 38 38 S 17 28 29.91 1013 10 16 0.00 0.00
5:56 pm 17:56 Sunny 93 33.9 66 18.9 41 41 S 15 24 29.90 1013 10 16 0.00 0.00
6:56 pm 18:56 Sunny 91 32.8 66 18.9 44 44 S 17 28 29.88 1012 10 16 0.00 0.00
7:56 pm 19:56 Sunny 88 31.1 67 19.4 50 50 SSE 13 20 29.87 1012 10 16 0.00 0.00
8:56 pm 20:56 Sunny 82 27.8 67 19.4 60 60 SSE 12 19 29.88 1012 10 16 0.00 0.00
9:56 pm 21:56 Clear 79 26.1 66 18.9 65 65 SSE 10 17 29.91 1013 10 16 0.00 0.00
10:56 pm 22:56 Clear 77 25 64 17.8 64 64 SSE 10 17 29.94 1014 10 16 0.00 0.00
11:56 pm 23:56 Clear 76 24.4 64 17.8 67 67 SSE 12 19 29.95 1014 10 16 0.00 0.00

Powered by AerisWeather